CAPE
0 0 0 0 0 0 0 0 0 0 0 0 0 0 0 0 0 0 0 0 0 86 129 187 213 275 315 110 2 0 0 0 0 0 0 0 0 0 0 0 0 0 0 0
0 0 0 0 0 0 0 0 0 0 0 0 0 0 0 0 0 0 0 0 0 136 113 68 111 243 284 49 0 0 0 0 0 0 0 0 0 0 0 0 0 0 0 0
0 0 0 0 0 0 0 0 0 0 0 0 0 0 0 0 0 0 0 0 0 181 149 133 108 215 258 94 0 0 0 0 0 0 0 0 0 0 0 0 0 0 0 0
0 0 0 0 0 0 0 0 0 0 0 0 0 0 0 0 0 0 0 0 0 121 210 129 110 177 242 130 31 0 0 0 0 0 0 0 0 0 0 0 0 0 0 0
0 0 0 0 0 0 0 0 0 0 0 0 0 0 0 0 0 0 0 1 24 100 213 197 176 172 202 141 45 2 0 0 0 0 0 0 0 0 0 0 0 0 0 0
0 0 0 0 0 0 0 0 0 0 0 0 0 0 0 0 0 0 1 6 151 238 224 188 140 148 167 117 43 0 0 0 0 0 0 0 0 0 0 0 0 0 0 0
0 0 0 0 0 0 0 0 0 0 0 0 0 0 0 0 0 0 0 0 38 128 171 140 105 119 138 57 0 0 0 0 0 0 0 0 0 0 0 0 0 0 0 0
0 0 0 0 0 0 0 0 0 0 0 0 0 0 0 0 0 9 18 0 0 52 110 124 86 54 17 0 0 0 0 0 0 0 0 0 0 0 0 0 0 0 0 0
0 0 0 0 0 0 0 0 0 0 0 0 0 0 0 0 0 2 11 10 0 0 26 30 22 25 8 0 0 0 0 0 0 0 0 0 0 0 2 0 0 0 0 0
0 0 0 0 0 0 0 0 0 0 0 0 0 0 0 0 1 1 3 6 7 1 0 5 6 3 12 3 0 0 0 0 0 0 0 0 1 6 12 12 19 6 2 3
0 0 0 0 0 0 0 0 0 0 0 0 0 0 0 5 0 3 22 5 2 16 2 8 10 11 1 7 3 6 0 0 0 0 7 9 15 30 38 46 46 26 31 31
0 0 0 0 0 0 0 0 0 0 0 0 0 0 0 4 12 0 0 4 1 0 2 17 3 37 42 43 31 22 0 0 0 0 3 15 24 23 29 35 51 51 47 28
0 0 0 0 0 0 0 0 0 0 2 0 0 0 0 0 14 3 2 0 1 2 0 21 52 40 59 40 29 30 0 0 0 0 0 18 8 17 21 22 33 32 34 33
0 0 0 0 0 0 0 0 0 1 0 0 0 0 0 0 0 0 0 4 38 92 95 45 39 57 95 82 34 0 15 0 0 0 1 16 16 4 0 0 18 44 37 26
0 0 0 0 0 0 0 0 0 0 0 0 0 0 0 0 0 0 0 0 0 52 130 124 118 146 131 199 145 53 2 0 0 0 0 0 0 1 0 1 17 29 22 17
14 0 0 0 0 0 0 0 0 0 0 0 0 0 0 1 5 33 17 40 58 52 75 56 81 160 185 176 161 133 26 0 0 0 0 0 0 0 1 0 4 1 8 7
0 5 0 0 0 0 0 0 0 0 0 0 0 0 10 8 20 35 38 22 5 8 66 69 30 31 3 60 69 22 24 20 4 0 0 0 0 0 0 0 0 0 3 0
0 4 5 0 3 0 0 0 0 0 0 5 1 0 11 5 28 6 9 8 0 0 0 3 1 8 47 23 36 31 18 13 8 11 0 0 1 0 1 0 0 0 0 0
0 1 0 0 0 0 0 0 0 8 0 6 19 6 17 0 0 0 8 0 0 0 0 0 0 1 42 83 33 20 0 0 0 2 7 6 8 5 0 0 0 0 0 0
0 2 0 0 3 0 0 0 51 14 0 0 3 4 0 0 0 0 0 0 0 0 0 0 0 0 2 4 0 0 0 0 0 0 0 0 0 0 5 0 0 0 0 0
0 8 0 0 3 18 5 42 46 16 19 0 0 0 0 0 0 0 0 0 1 1 26 6 0 0 0 0 0 0 0 0 0 0 0 0 0 0 0 0 0 0 0 0
0 0 0 0 0 0 13 3 27 9 8 0 27 2 0 3 0 0 0 0 5 10 52 31 9 0 0 0 0 0 0 0 0 0 0 0 0 0 0 0 0 0 0 0
6 44 14 0 11 38 0 1 0 11 7 5 4 18 5 0 0 14 11 3 2 27 32 7 3 0 0 0 0 0 0 0 0 0 0 0 0 0 0 0 0 0 0 0
0 0 8 0 23 2 0 0 8 15 8 8 0 0 0 0 0 20 14 0 0 9 1 17 0 0 0 0 0 0 0 0 0 0 0 0 0 0 0 0 0 0 0 0
0 0 0 0 0 21 78 35 19 19 6 2 0 0 0 0 0 5 20 16 0 0 20 41 17 2 0 0 0 0 0 0 0 0 0 0 0 0 0 0 0 0 0 0
0 0 0 0 0 14 0 28 45 88 1 0 6 0 0 0 0 0 6 13 21 9 17 21 23 8 0 0 0 0 0 0 0 0 0 0 1 0 0 0 0 0 0 0
CIN
-0 -0 -0 -0 -0 -0 -0 -0 -0 -0 -0 -0 -0 -0 -0 -0 -0 -0 -0 -0 -0 -67 -106 -71 -79 -88 -103 -123 -51 -0 -0 -0 -0 -0 -0 -0 -0 -0 -0 -0 -0 -0 -0 -0
-0 -0 -0 -0 -0 -0 -0 -0 -0 -0 -0 -0 -0 -0 -0 -0 -0 -0 -0 -0 -0 -95 -84 -69 -75 -95 -97 -88 -0 -0 -0 -0 -0 -0 -0 -0 -0 -0 -0 -0 -0 -0 -0 -0
-0 -0 -0 -0 -0 -0 -0 -0 -0 -0 -0 -0 -0 -0 -0 -0 -0 -0 -0 -0 -0 -117 -97 -88 -86 -113 -103 -95 -0 -0 -0 -0 -0 -0 -0 -0 -0 -0 -0 -0 -0 -0 -0 -0
-0 -0 -0 -0 -0 -0 -0 -0 -0 -0 -0 -0 -0 -0 -0 -0 -0 -0 -0 -0 -0 -160 -117 -103 -96 -73 -106 -85 -108 -0 -0 -0 -0 -0 -0 -0 -0 -0 -0 -0 -0 -0 -0 -0
-0 -0 -0 -0 -0 -0 -0 -0 -0 -0 -0 -0 -0 -0 -0 -0 -0 -0 -0 -11 -153 -130 -120 -118 -92 -75 -81 -87 -110 -158 -0 -0 -0 -0 -0 -0 -0 -0 -0 -0 -0 -0 -0 -0
-0 -0 -0 -0 -0 -0 -0 -0 -0 -0 -0 -0 -0 -0 -0 -0 -0 -0 -12 -25 -127 -88 -90 -89 -95 -82 -87 -95 -114 -0 -0 -0 -0 -0 -0 -0 -0 -0 -0 -0 -0 -0 -0 -0
-0 -0 -0 -0 -0 -0 -0 -0 -0 -0 -0 -0 -0 -0 -0 -0 -0 -25 -0 -0 -119 -116 -93 -103 -104 -103 -92 -86 -16 -0 -0 -0 -0 -0 -0 -0 -0 -0 -0 -0 -0 -0 -0 -0
-0 -0 -0 -0 -0 -0 -0 -0 -0 -0 -0 -0 -0 -0 -0 -0 -0 -124 -38 -0 -0 -122 -91 -82 -93 -82 -105 -0 -0 -0 -0 -0 -0 -0 -0 -0 -0 -0 -0 -0 -0 -0 -0 -0
-0 -0 -0 -0 -0 -0 -0 -0 -0 -0 -0 -0 -0 -0 -0 -0 -0 -18 -3 -6 -1 -0 -63 -80 -97 -102 -175 -0 -0 -0 -0 -0 -0 -0 -0 -0 -0 -0 -33 -0 -0 -0 -0 -0
-0 -0 -0 -0 -0 -0 -0 -0 -0 -0 -0 -0 -0 -0 -0 -0 -61 -23 -31 -15 -17 -2 -0 -38 -54 -21 -62 -144 -0 -0 -0 -0 -0 -0 -0 -0 -19 -43 -20 -24 -16 -31 -53 -36
-0 -0 -0 -0 -0 -0 -0 -0 -0 -0 -0 -0 -0 -0 -0 -32 -0 -36 -21 -21 -5 -16 -32 -14 -1 -12 -3 -50 -128 -136 -0 -0 -0 -0 -11 -49 -21 -19 -17 -17 -14 -20 -24 -24
-0 -0 -0 -0 -0 -0 -0 -0 -0 -0 -0 -0 -0 -0 -0 -54 -42 -0 -0 -7 -5 -0 -0 -15 -44 -23 -61 -42 -54 -71 -0 -0 -0 -0 -4 -37 -36 -47 -43 -23 -21 -16 -30 -35
-0 -0 -0 -0 -0 -0 -0 -0 -0 -0 -1 -0 -0 -0 -0 -0 -62 -52 -12 -0 -24 -4 -0 -59 -46 -68 -78 -53 -24 -39 -10 -0 -0 -0 -0 -5 -12 -9 -15 -26 -36 -26 -37 -26
-0 -0 -0 -0 -0 -0 -0 -0 -0 -2 -0 -0 -0 -0 -0 -0 -0 -0 -0 -51 -64 -28 -29 -30 -64 -108 -78 -64 -90 -0 -94 -0 -0 -0 -0 -30 -12 -25 -0 -28 -21 -18 -28 -27
-0 -0 -0 -0 -0 -0 -0 -0 -0 -0 -0 -0 -0 -0 -0 -0 -0 -0 -0 -0 -0 -42 -19 -16 -104 -39 -79 -51 -65 -83 -77 -0 -0 -0 -0 -7 -8 -4 -0 -39 -28 -30 -17 -21
-56 -0 -0 -0 -0 -0 -0 -0 -0 -0 -0 -0 -1 -0 -0 -13 -26 -112 -121 -77 -65 -141 -61 -46 -152 -108 -36 -89 -78 -83 -98 -0 -0 -0 -0 -0 -0 -0 -23 -0 -58 -31 -16 -22
-0 -0 -0 -0 -0 -0 -0 -0 -0 -0 -0 -1 -0 -0 -22 -53 -108 -132 -153 -109 -59 -41 -72 -60 -32 -139 -149 -127 -91 -33 -17 -43 -24 -0 -0 -0 -0 -0 -0 -0 -0 -3 -29 -0
-0 -2 -4 -0 -1 -0 -0 -0 -0 -0 -0 -13 -27 -2 -69 -49 -46 -116 -98 -87 -0 -0 -0 -28 -6 -10 -9 -34 -51 -56 -40 -38 -30 -22 -0 -0 -19 -2 -48 -0 -0 -0 -0 -0
-0 -46 -0 -0 -0 -0 -0 -0 -0 -14 -0 -53 -35 -59 -116 -0 -10 -0 -66 -0 -0 -0 -0 -0 -1 -4 -27 -56 -74 -72 -8 -5 -0 -3 -12 -24 -19 -21 -0 -0 -0 -0 -0 -0
-0 -7 -1 -0 -0 -0 -0 -4 -20 -71 -0 -0 -39 -69 -0 -0 -0 -0 -0 -0 -0 -0 -0 -0 -0 -0 -73 -111 -0 -0 -0 -0 -0 -0 -0 -0 -0 -0 -10 -0 -0 -0 -0 -0
-0 -29 -0 -0 -2 -8 -15 -35 -83 -12 -61 -0 -0 -0 -0 -0 -0 -0 -0 -3 -7 -12 -14 -3 -0 -0 -2 -0 -0 -0 -0 -0 -0 -0 -0 -0 -0 -0 -0 -0 -0 -0 -0 -0
-0 -0 -0 -0 -0 -0 -40 -10 -21 -20 -6 -0 -5 -4 -0 -14 -0 -0 -0 -0 -13 -9 -33 -10 -19 -0 -0 -0 -0 -0 -0 -0 -0 -0 -0 -0 -0 -0 -0 -0 -0 -0 -0 -0
-2 -4 -7 -0 -11 -51 -0 -70 -3 -45 -9 -4 -10 -8 -6 -0 -0 -30 -28 -45 -37 -12 -19 -8 -41 -65 -0 -0 -0 -0 -0 -0 -0 -0 -0 -0 -0 -0 -0 -0 -0 -0 -0 -0
-0 -0 -0 -0 -21 -22 -0 -0 -7 -18 -24 -21 -0 -0 -0 -0 -0 -27 -10 -0 -0 -2 -2 -10 -1 -0 -0 -0 -0 -0 -0 -0 -0 -0 -0 -0 -0 -0 -0 -0 -0 -0 -0 -0
-0 -0 -0 -0 -0 -38 -30 -26 -34 -12 -8 -7 -4 -0 -0 -0 -0 -15 -30 -25 -0 -0 -3 -7 -0 -1 -0 -0 -0 -0 -0 -0 -0 -0 -0 -0 -0 -0 -0 -0 -0 -0 -0 -0
-0 -0 -0 -0 -0 -32 -0 -35 -24 -4 -5 -11 -45 -0 -0 -0 -0 -0 -3 -1 -6 -12 -12 -5 -1 -3 -0 -0 -0 -0 -0 -0 -0 -0 -0 -0 -0 -0 -0 -3 -0 -0 -0 -0
Wind_Speed
nan nan nan nan nan nan nan nan nan nan nan nan nan nan nan nan nan nan nan nan nan nan 65 66 64 61 52 57 nan nan nan nan nan nan nan nan nan nan nan nan nan nan nan nan
nan nan nan nan nan nan nan nan nan nan nan nan nan nan nan nan nan nan nan nan nan 52 63 nan 64 54 48 nan nan nan nan nan nan nan nan nan nan nan nan nan nan nan nan nan
nan nan nan nan nan nan nan nan nan nan nan nan nan nan nan nan nan nan nan nan nan 54 66 66 62 55 46 nan nan nan nan nan nan nan nan nan nan nan nan nan nan nan nan nan
nan nan nan nan nan nan nan nan nan nan nan nan nan nan nan nan nan nan nan nan nan 49 60 63 67 59 51 50 nan nan nan nan nan nan nan nan nan nan nan nan nan nan nan nan
nan nan nan nan nan nan nan nan nan nan nan nan nan nan nan nan nan nan nan nan nan 54 60 62 62 61 55 61 nan nan nan nan nan nan nan nan nan nan nan nan nan nan nan nan
nan nan nan nan nan nan nan nan nan nan nan nan nan nan nan nan nan nan nan nan 45 48 50 55 60 65 61 62 nan nan nan nan nan nan nan nan nan nan nan nan nan nan nan nan
nan nan nan nan nan nan nan nan nan nan nan nan nan nan nan nan nan nan nan nan nan 52 55 62 66 64 64 nan nan nan nan nan nan nan nan nan nan nan nan nan nan nan nan nan
nan nan nan nan nan nan nan nan nan nan nan nan nan nan nan nan nan nan nan nan nan nan 58 61 nan nan nan nan nan nan nan nan nan nan nan nan nan nan nan nan nan nan nan nan
nan nan nan nan nan nan nan nan nan nan nan nan nan nan nan nan nan nan nan nan nan nan nan nan nan nan nan nan nan nan nan nan nan nan nan nan nan nan nan nan nan nan nan nan
nan nan nan nan nan nan nan nan nan nan nan nan nan nan nan nan nan nan nan nan nan nan nan nan nan nan nan nan nan nan nan nan nan nan nan nan nan nan nan nan nan nan nan nan
nan nan nan nan nan nan nan nan nan nan nan nan nan nan nan nan nan nan nan nan nan nan nan nan nan nan nan nan nan nan nan nan nan nan nan nan nan nan nan nan nan nan nan nan
nan nan nan nan nan nan nan nan nan nan nan nan nan nan nan nan nan nan nan nan nan nan nan nan nan nan nan nan nan nan nan nan nan nan nan nan nan nan nan nan nan nan nan nan
nan nan nan nan nan nan nan nan nan nan nan nan nan nan nan nan nan nan nan nan nan nan nan nan nan nan nan nan nan nan nan nan nan nan nan nan nan nan nan nan nan nan nan nan
nan nan nan nan nan nan nan nan nan nan nan nan nan nan nan nan nan nan nan nan nan nan nan nan nan nan nan nan nan nan nan nan nan nan nan nan nan nan nan nan nan nan nan nan
nan nan nan nan nan nan nan nan nan nan nan nan nan nan nan nan nan nan nan nan nan nan 48 47 40 40 47 47 48 nan nan nan nan nan nan nan nan nan nan nan nan nan nan nan
nan nan nan nan nan nan nan nan nan nan nan nan nan nan nan nan nan nan nan nan nan nan nan nan nan 41 45 41 42 41 nan nan nan nan nan nan nan nan nan nan nan nan nan nan
nan nan nan nan nan nan nan nan nan nan nan nan nan nan nan nan nan nan nan nan nan nan nan nan nan nan nan nan nan nan nan nan nan nan nan nan nan nan nan nan nan nan nan nan
nan nan nan nan nan nan nan nan nan nan nan nan nan nan nan nan nan nan nan nan nan nan nan nan nan nan nan nan nan nan nan nan nan nan nan nan nan nan nan nan nan nan nan nan
nan nan nan nan nan nan nan nan nan nan nan nan nan nan nan nan nan nan nan nan nan nan nan nan nan nan nan nan nan nan nan nan nan nan nan nan nan nan nan nan nan nan nan nan
nan nan nan nan nan nan nan nan nan nan nan nan nan nan nan nan nan nan nan nan nan nan nan nan nan nan nan nan nan nan nan nan nan nan nan nan nan nan nan nan nan nan nan nan
nan nan nan nan nan nan nan nan nan nan nan nan nan nan nan nan nan nan nan nan nan nan nan nan nan nan nan nan nan nan nan nan nan nan nan nan nan nan nan nan nan nan nan nan
nan nan nan nan nan nan nan nan nan nan nan nan nan nan nan nan nan nan nan nan nan nan nan nan nan nan nan nan nan nan nan nan nan nan nan nan nan nan nan nan nan nan nan nan
nan nan nan nan nan nan nan nan nan nan nan nan nan nan nan nan nan nan nan nan nan nan nan nan nan nan nan nan nan nan nan nan nan nan nan nan nan nan nan nan nan nan nan nan
nan nan nan nan nan nan nan nan nan nan nan nan nan nan nan nan nan nan nan nan nan nan nan nan nan nan nan nan nan nan nan nan nan nan nan nan nan nan nan nan nan nan nan nan
nan nan nan nan nan nan nan nan nan nan nan nan nan nan nan nan nan nan nan nan nan nan nan nan nan nan nan nan nan nan nan nan nan nan nan nan nan nan nan nan nan nan nan nan
nan nan nan nan nan nan nan nan nan nan nan nan nan nan nan nan nan nan nan nan nan nan nan nan nan nan nan nan nan nan nan nan nan nan nan nan nan nan nan nan nan nan nan nan
Wind_Direction
nan nan nan nan nan nan nan nan nan nan nan nan nan nan nan nan nan nan nan nan nan nan 299 294 294 299 299 295 nan nan nan nan nan nan nan nan nan nan nan nan nan nan nan nan
nan nan nan nan nan nan nan nan nan nan nan nan nan nan nan nan nan nan nan nan nan 288 292 nan 297 302 304 nan nan nan nan nan nan nan nan nan nan nan nan nan nan nan nan nan
nan nan nan nan nan nan nan nan nan nan nan nan nan nan nan nan nan nan nan nan nan 297 298 303 305 310 302 nan nan nan nan nan nan nan nan nan nan nan nan nan nan nan nan nan
nan nan nan nan nan nan nan nan nan nan nan nan nan nan nan nan nan nan nan nan nan 292 295 307 309 309 305 300 nan nan nan nan nan nan nan nan nan nan nan nan nan nan nan nan
nan nan nan nan nan nan nan nan nan nan nan nan nan nan nan nan nan nan nan nan nan 290 291 296 302 298 296 294 nan nan nan nan nan nan nan nan nan nan nan nan nan nan nan nan
nan nan nan nan nan nan nan nan nan nan nan nan nan nan nan nan nan nan nan nan 281 281 284 284 286 288 287 288 nan nan nan nan nan nan nan nan nan nan nan nan nan nan nan nan
nan nan nan nan nan nan nan nan nan nan nan nan nan nan nan nan nan nan nan nan nan 274 271 277 283 285 285 nan nan nan nan nan nan nan nan nan nan nan nan nan nan nan nan nan
nan nan nan nan nan nan nan nan nan nan nan nan nan nan nan nan nan nan nan nan nan nan 274 278 nan nan nan nan nan nan nan nan nan nan nan nan nan nan nan nan nan nan nan nan
nan nan nan nan nan nan nan nan nan nan nan nan nan nan nan nan nan nan nan nan nan nan nan nan nan nan nan nan nan nan nan nan nan nan nan nan nan nan nan nan nan nan nan nan
nan nan nan nan nan nan nan nan nan nan nan nan nan nan nan nan nan nan nan nan nan nan nan nan nan nan nan nan nan nan nan nan nan nan nan nan nan nan nan nan nan nan nan nan
nan nan nan nan nan nan nan nan nan nan nan nan nan nan nan nan nan nan nan nan nan nan nan nan nan nan nan nan nan nan nan nan nan nan nan nan nan nan nan nan nan nan nan nan
nan nan nan nan nan nan nan nan nan nan nan nan nan nan nan nan nan nan nan nan nan nan nan nan nan nan nan nan nan nan nan nan nan nan nan nan nan nan nan nan nan nan nan nan
nan nan nan nan nan nan nan nan nan nan nan nan nan nan nan nan nan nan nan nan nan nan nan nan nan nan nan nan nan nan nan nan nan nan nan nan nan nan nan nan nan nan nan nan
nan nan nan nan nan nan nan nan nan nan nan nan nan nan nan nan nan nan nan nan nan nan nan nan nan nan nan nan nan nan nan nan nan nan nan nan nan nan nan nan nan nan nan nan
nan nan nan nan nan nan nan nan nan nan nan nan nan nan nan nan nan nan nan nan nan nan 288 285 293 291 288 286 287 nan nan nan nan nan nan nan nan nan nan nan nan nan nan nan
nan nan nan nan nan nan nan nan nan nan nan nan nan nan nan nan nan nan nan nan nan nan nan nan nan 293 309 298 300 290 nan nan nan nan nan nan nan nan nan nan nan nan nan nan
nan nan nan nan nan nan nan nan nan nan nan nan nan nan nan nan nan nan nan nan nan nan nan nan nan nan nan nan nan nan nan nan nan nan nan nan nan nan nan nan nan nan nan nan
nan nan nan nan nan nan nan nan nan nan nan nan nan nan nan nan nan nan nan nan nan nan nan nan nan nan nan nan nan nan nan nan nan nan nan nan nan nan nan nan nan nan nan nan
nan nan nan nan nan nan nan nan nan nan nan nan nan nan nan nan nan nan nan nan nan nan nan nan nan nan nan nan nan nan nan nan nan nan nan nan nan nan nan nan nan nan nan nan
nan nan nan nan nan nan nan nan nan nan nan nan nan nan nan nan nan nan nan nan nan nan nan nan nan nan nan nan nan nan nan nan nan nan nan nan nan nan nan nan nan nan nan nan
nan nan nan nan nan nan nan nan nan nan nan nan nan nan nan nan nan nan nan nan nan nan nan nan nan nan nan nan nan nan nan nan nan nan nan nan nan nan nan nan nan nan nan nan
nan nan nan nan nan nan nan nan nan nan nan nan nan nan nan nan nan nan nan nan nan nan nan nan nan nan nan nan nan nan nan nan nan nan nan nan nan nan nan nan nan nan nan nan
nan nan nan nan nan nan nan nan nan nan nan nan nan nan nan nan nan nan nan nan nan nan nan nan nan nan nan nan nan nan nan nan nan nan nan nan nan nan nan nan nan nan nan nan
nan nan nan nan nan nan nan nan nan nan nan nan nan nan nan nan nan nan nan nan nan nan nan nan nan nan nan nan nan nan nan nan nan nan nan nan nan nan nan nan nan nan nan nan
nan nan nan nan nan nan nan nan nan nan nan nan nan nan nan nan nan nan nan nan nan nan nan nan nan nan nan nan nan nan nan nan nan nan nan nan nan nan nan nan nan nan nan nan
nan nan nan nan nan nan nan nan nan nan nan nan nan nan nan nan nan nan nan nan nan nan nan nan nan nan nan nan nan nan nan nan nan nan nan nan nan nan nan nan nan nan nan nan